Location: Gila Cliff Dwellings National Monument
(33.2240°N, 108.2417°W)
Time: 23:25:21
(UTC-06:00)

Cosmos 2322 Rocket - Visible Passes

Search period start: 25 March 2017 00:00
Search period end: 04 April 2017 00:00
Orbit: 834 x 849 km, 71.0° (Epoch: 24 March)

Date Brightness Start Highest point End Pass type
(mag) Time Alt. Az. Time Alt. Az. Time Alt. Az.
25 Mar 4.4 03:55:21 17° N 03:55:21 17° N 03:56:39 10° NNE visible
26 Mar 4.6 03:40:45 15° NNE 03:40:45 15° NNE 03:41:41 10° NNE visible
27 Mar 4.8 03:26:07 13° NNE 03:26:07 13° NNE 03:26:42 10° NNE visible
28 Mar 5.0 03:11:28 11° NNE 03:11:28 11° NNE 03:11:43 10° NNE visible
